Location: Burtsch�tz
(51.0528°N, 12.1764°E)
Time: 06:23:01
(UTC+00:00)

Cosmos 2278 - Pass Details

Date: 29 October 2020
Orbit: 841 x 851 km, 71.1° (Epoch: 01 December)

Event Time Altitude Azimuth Distance (km) Brightness Sun altitude
Rises 18:03:55 0° 192° (SSW) 3,398 6.9 -21.5°
Reaches altitude 10° 18:06:24 10° 188° (S) 2,466 6.2 -21.9°
Maximum altitude 18:11:54 55° 112° (ESE) 1,011 3.7 -22.7°
Enters shadow 18:12:36 52° 85° (E) 1,051 3.8 -22.8°
